Strona główna
METAR-TAF:

METAR-TAF

Lotnisko :

Shimojishima, Japonia

Szerokość geograficzna: 24-50N, Długość geograficzna: 125-09E, wysokość: 16 m

Aktualna obserwacja pogody

Raport powstał 4 godziny i 49 minut temu, godzina 10:00 UTC
Wiatr 4 kt od wschodnio-północny wschód
Temperatura 17°C
Wilgotność 55%
Ciśnienie 1024 hPa
Widzialność 10 km lub więcej
Mało chmury na wysokości 4500 ft

METAR: RORS 191000Z 07004KT 9999 FEW045 17/08 Q1024

czas: 23:49 (14:49 UTC)


TAF: brakujący

Obserwacja i prognoza pogody dla ponad 4000 lotnisk (raport METAR i TAF).

Dostępne stacje oznaczono żółtymi i czerwonymi punktami na mapie.

Najedź kursorem aby zobaczyć nazwę stacji.

Kliknij aby zobaczyć obserwacje i prognozy pogody.

Aby zmienić mapę: kliknij na zielony przycisk z czarnym krzyżykiem, aby powiększyć; na zielony przycisk z myślnikiem, aby pomniejszyć; na zielone strzałki, aby przejść do map sąsiednich.


METAR-TAF: